Weather History for Grand Marais, MN

Change the Weather History Date:

Sunday, July 21, 2013

  Actual Average (KCKC) Record (KCKC)
Temperature  
Mean Temperature 54 °F -  
Max Temperature 61 °F 71 °F 87 °F (2004)
Min Temperature 46 °F 51 °F 35 °F (2013)
Degree Days  
Heating Degree Days 12    
Growing Degree Days 4 (Base 50)    
Moisture  
Dew Point 45 °F    
Average Humidity 74    
Maximum Humidity 93    
Minimum Humidity 58    
Precipitation  
Precipitation 0.00 in - - ()
Sea Level Pressure  
Sea Level Pressure 30.00 in    
Wind  
Wind Speed 2 mph (ENE)    
Max Wind Speed 7 mph    
Max Gust Speed -    
Averages and records for this station are not official NWS values.
T = Trace of Precipitation, MM = Missing Value Source: NWS Daily Summary

Daily Weather History Graph

Daily Weather History Graph

Search for Another Location

Airport:

Trip Planner

Search our weather history database for the weather conditions in past years. The results will help you decide how hot, cold, wet, or windy it might be!

Date:

Astronomy

Jul. 21, 2013 Rise Set
Actual Time 5:25 AM CDT 8:49 PM CDT
Civil Twilight 4:47 AM CDT 9:27 PM CDT
Nautical Twilight 3:57 AM CDT 10:17 PM CDT
Astronomical Twilight 2:51 AM CDT 11:22 PM CDT
Moon 7:44 PM CDT (7/21) 4:13 AM CDT (7/21)
Length of Visible Light 16h 40m
Length of Day
15h 24m
Waxing Gibbous, 98% of the Moon is Illuminated
Jul 21
Waxing Gibbous
Jul 22
Full
Jul 29
Last Quarter
Aug 6
New
Aug 14
First Quarter

Hourly Weather History & Observations

Time (CDT) Temp. Dew Point Humidity Pressure Visibility Wind Dir Wind Speed Gust Speed Precip Events Conditions
12:56 AM 46.0 °F 44.1 °F 93% 30.06 in - Calm Calm - N/A   Unknown
1:56 AM 46.9 °F 43.0 °F 86% 30.05 in - NNW 3.5 mph - N/A   Unknown
2:56 AM 46.9 °F 43.0 °F 86% 30.04 in - Calm Calm - N/A   Unknown
3:56 AM 46.0 °F 43.0 °F 89% 30.04 in - Calm Calm - N/A   Unknown
4:56 AM 46.9 °F 43.0 °F 86% 30.04 in - Calm Calm - N/A   Unknown
5:56 AM 46.0 °F 43.0 °F 89% 30.04 in - Calm Calm - N/A   Unknown
6:56 AM 48.9 °F 44.1 °F 83% 30.04 in - Calm Calm - N/A   Unknown
7:56 AM 50.0 °F 44.1 °F 80% 30.05 in - Calm Calm - N/A   Unknown
8:56 AM 54.0 °F 45.0 °F 72% 30.05 in - ESE 3.5 mph - N/A   Unknown
9:56 AM 54.0 °F 46.9 °F 77% 30.05 in - East 3.5 mph - N/A   Unknown
10:56 AM 57.9 °F 46.0 °F 65% 30.05 in - Calm Calm - N/A   Unknown
11:56 AM 61.0 °F 46.0 °F 58% 30.03 in - Calm Calm - N/A   Unknown
12:56 PM 57.9 °F 44.1 °F 60% 30.04 in - East 3.5 mph - N/A   Unknown
1:56 PM 57.9 °F 46.0 °F 65% 30.01 in - East 5.8 mph - N/A   Unknown
2:56 PM 57.9 °F 48.0 °F 70% 29.99 in - ENE 4.6 mph - N/A   Unknown
3:56 PM 57.0 °F 48.0 °F 72% 29.98 in - ENE 3.5 mph - N/A   Unknown
4:56 PM 57.9 °F 48.9 °F 72% 29.97 in - East 4.6 mph - N/A   Unknown
5:56 PM 57.0 °F 48.0 °F 72% 29.95 in - ENE 3.5 mph - N/A   Unknown
6:56 PM 55.9 °F 46.9 °F 72% 29.94 in - ENE 4.6 mph - N/A   Unknown
7:56 PM 55.9 °F 46.0 °F 69% 29.93 in - ENE 6.9 mph - N/A   Unknown
8:56 PM 55.9 °F 46.0 °F 69% 29.91 in - East 4.6 mph - N/A   Unknown
9:56 PM 55.9 °F 45.0 °F 67% 29.92 in - NE 5.8 mph - N/A   Unknown
10:56 PM 57.0 °F 44.1 °F 62% 29.91 in - NE 4.6 mph - N/A   Unknown
11:56 PM 57.0 °F 45.0 °F 64% 29.87 in - ENE 6.9 mph - N/A   Unknown